Santa Rosa, CA

1:47 PM PST on November 18, 2017 (GMT -0800)
Sonoma County

Weather History for KSTS - October, 2012

Change the Weather History Date:

Wednesday, October 24, 2012

  Actual Average Record
Temperature  
Mean Temperature 57 °F 59 °F  
Max Temperature 64 °F 74 °F 93 °F (2017)
Min Temperature 50 °F 44 °F 37 °F (1999)
Degree Days  
Heating Degree Days 8    
Month to date heating degree days 102  
Since 1 July heating degree days 182  
Cooling Degree Days 0    
Month to date cooling degree days 47  
Year to date cooling degree days 338  
Growing Degree Days 6 (Base 50)    
Moisture  
Dew Point 49 °F    
Average Humidity 76    
Maximum Humidity 100    
Minimum Humidity 51    
Precipitation  
Precipitation 0.04 in 0.10 in 2.04 in (2010)
Month to date precipitation 1.47 1.29  
Year to date precipitation 20.26 23.82  
Since 1 July precipitation 1.47  
Sea Level Pressure  
Sea Level Pressure 30.07 in    
Wind  
Wind Speed 3 mph (SW)    
Max Wind Speed 14 mph    
Max Gust Speed 17 mph    
Visibility 9 miles    
Events Rain    
T = Trace of Precipitation, MM = Missing Value Source: NWS Daily Summary

Daily Weather History Graph

Daily Weather History Graph

Search for Another Location

Airport or City:

Trip Planner

Search our weather history database for the weather conditions in past years. The results will help you decide how hot, cold, wet, or windy it might be!

Date:

Astronomy

Oct. 24, 2012 Rise Set
Actual Time 7:29 AM PDT 6:20 PM PDT
Civil Twilight 7:02 AM PDT 6:47 PM PDT
Nautical Twilight 6:31 AM PDT 7:18 PM PDT
Astronomical Twilight 6:01 AM PDT 7:48 PM PDT
Moon 3:35 PM PDT (10/24) 2:34 AM PDT (10/24)
Length of Visible Light 11h 44m
Length of Day
10h 50m
Waxing Gibbous, 77% of the Moon is Illuminated
Oct 24
Waxing Gibbous
Oct 29
Full
Nov 6
Last Quarter
Nov 13
New
Nov 20
First Quarter

Hourly Weather History & Observations

Time (PDT) Temp. Dew Point Humidity Pressure Visibility Wind Dir Wind Speed Gust Speed Precip Events Conditions
12:51 AM 48.2 °F 48.2 °F 100% 30.01 in 2.0 mi NE 5.8 mph - 0.18 in Rain Heavy Rain
12:53 AM 48.9 °F 48.0 °F 97% 30.00 in 2.5 mi ENE 4.6 mph - 0.19 in Rain Heavy Rain
1:02 AM 50.0 °F 48.2 °F 94% 30.02 in 4.0 mi East 4.6 mph - 0.03 in Rain Rain
1:53 AM 50.0 °F 48.9 °F 96% 30.00 in 10.0 mi ESE 3.5 mph - 0.04 in   Overcast
2:26 AM 51.8 °F 48.2 °F 88% 30.01 in 10.0 mi Calm Calm - N/A   Overcast
2:49 AM 51.8 °F 48.2 °F 88% 30.01 in 10.0 mi Calm Calm - N/A   Overcast
2:53 AM 51.1 °F 48.0 °F 89% 29.99 in 10.0 mi Calm Calm - N/A   Overcast
3:53 AM 52.0 °F 50.0 °F 93% 30.00 in 10.0 mi SE 3.5 mph - 0.01 in   Overcast
4:53 AM 52.0 °F 50.0 °F 93% 30.00 in 10.0 mi Calm Calm - N/A   Overcast
5:30 AM 51.8 °F 50.0 °F 94% 30.02 in 10.0 mi Calm Calm - N/A   Overcast
5:53 AM 52.0 °F 50.0 °F 93% 30.01 in 10.0 mi Calm Calm - N/A   Overcast
6:14 AM 51.8 °F 50.0 °F 94% 30.02 in 10.0 mi Calm Calm - N/A   Overcast
6:53 AM 51.1 °F 50.0 °F 96% 30.02 in 10.0 mi WNW 3.5 mph - N/A   Overcast
7:53 AM 50.0 °F 48.0 °F 93% 30.04 in 3.0 mi Calm Calm - N/A   Mostly Cloudy
8:27 AM 51.8 °F 50.0 °F 94% 30.07 in 6.0 mi Calm Calm - N/A   Overcast
8:53 AM 52.0 °F 50.0 °F 93% 30.06 in 8.0 mi Calm Calm - N/A   Overcast
9:00 AM 53.6 °F 51.8 °F 94% 30.08 in 8.0 mi NNW 3.5 mph - N/A   Overcast
9:28 AM 53.6 °F 51.8 °F 94% 30.09 in 10.0 mi Calm Calm - N/A   Scattered Clouds
9:53 AM 54.0 °F 50.0 °F 86% 30.08 in 8.0 mi Calm Calm - N/A   Mostly Cloudy
10:24 AM 55.4 °F 51.8 °F 88% 30.10 in 10.0 mi Calm Calm - N/A   Mostly Cloudy
10:53 AM 55.9 °F 50.0 °F 80% 30.09 in 10.0 mi Calm Calm - N/A   Mostly Cloudy
11:49 AM 59.0 °F 51.8 °F 77% 30.11 in 10.0 mi Calm Calm - N/A   Mostly Cloudy
11:53 AM 59.0 °F 50.0 °F 72% 30.09 in 10.0 mi Variable 3.5 mph - N/A   Mostly Cloudy
12:53 PM 60.1 °F 46.0 °F 60% 30.09 in 10.0 mi SW 6.9 mph - N/A   Mostly Cloudy
2:53 PM 63.0 °F 44.1 °F 50% 30.08 in 10.0 mi WSW 11.5 mph - N/A   Mostly Cloudy
3:53 PM 63.0 °F 44.1 °F 50% 30.09 in 10.0 mi SW 10.4 mph - N/A   Mostly Cloudy
4:53 PM 61.0 °F 43.0 °F 52% 30.11 in 10.0 mi WSW 12.7 mph - N/A   Mostly Cloudy
5:53 PM 59.0 °F 44.1 °F 58% 30.11 in 10.0 mi WSW 8.1 mph - N/A   Mostly Cloudy
6:53 PM 57.0 °F 46.9 °F 69% 30.12 in 10.0 mi Calm Calm - N/A   Mostly Cloudy
7:53 PM 55.9 °F 48.9 °F 77% 30.14 in 10.0 mi Calm Calm - N/A   Overcast
8:53 PM 55.9 °F 50.0 °F 80% 30.15 in 10.0 mi Calm Calm - N/A   Overcast
9:53 PM 55.0 °F 51.1 °F 86% 30.16 in 10.0 mi Calm Calm - 0.00 in   Overcast
10:53 PM 55.0 °F 51.1 °F 86% 30.17 in 10.0 mi Calm Calm - N/A   Overcast
11:53 PM 54.0 °F 51.1 °F 90% 30.18 in 10.0 mi Calm Calm - 0.00 in   Overcast